Terminal Aerodrome Forecast
Issued by NWS

Home | Current Version | Previous Version | Graphics & Text | Print | Product List | Glossary On
Versions: 1 2 3 4 5 6 7 8 9 10 11 12 13 14
000
FTUS45 KGGW 092320
TAFSDY
TAF
KSDY 092320Z 1000/1024 07004KT P6SM BKN045
     FM101800 11009KT 2SM -SN OVC014=

USA.gov is the U.S. government's official web portal to all federal, state and local government web resources and services.